Weather History for FVHA - February, 2014

Change the Weather History Date:

Friday, February 7, 2014

  Actual Average Record
Temperature  
Mean Temperature 70 °F -  
Max Temperature 76 °F 78 °F 87 °F (2002)
Min Temperature 64 °F 60 °F 53 °F (2004)
Cooling Degree Days 5    
Growing Degree Days 20 (Base 50)    
Moisture  
Dew Point 65 °F    
Average Humidity 89    
Maximum Humidity 100    
Minimum Humidity 65    
Precipitation  
Precipitation 0.00 in 0.17 in - ()
Sea Level Pressure  
Sea Level Pressure 30.00 in    
Wind  
Wind Speed 5 mph ()    
Max Wind Speed 16 mph    
Max Gust Speed -    
Visibility 9.5 miles    
Events Rain , Thunderstorm    
Averages and records for this station are not official NWS values.
T = Trace of Precipitation, MM = Missing Value Source: Averaged Metar Reports

Daily Weather History Graph

Daily Weather History Graph

Search for Another Location

Airport or City:

Trip Planner

Search our weather history database for the weather conditions in past years. The results will help you decide how hot, cold, wet, or windy it might be!

Date:

Astronomy

Feb. 07, 2014 Rise Set
Actual Time 5:45 AM CAT 6:33 PM CAT
Civil Twilight 5:22 AM CAT 6:56 PM CAT
Nautical Twilight 4:56 AM CAT 7:22 PM CAT
Astronomical Twilight 4:28 AM CAT 7:49 PM CAT
Moon 12:45 PM CAT (2/7) No Moon Set
Length of Visible Light 13h 33m
Length of Day
12h 47m
First Quarter, 56% of the Moon is Illuminated
Feb 7
First Quarter
Feb 15
Full
Feb 22
Last Quarter
Mar 1
New
Mar 8
First Quarter

Hourly Weather History & Observations

Time (CAT) Temp. Dew Point Humidity Pressure Visibility Wind Dir Wind Speed Gust Speed Precip Events Conditions
2:00 AM 65 °F 64 °F 96%  in 19 mi SSE 3.5 mph - - Rain , Thunderstorm Thunderstorms and Rain
2:00 AM 64.4 °F 64.4 °F 100% 29.95 in 6.2 mi SSE 3.5 mph - N/A Rain , Thunderstorm Light Thunderstorms and Rain
5:00 AM 65 °F 64 °F 97%  in 19 mi NE 10.4 mph - -   Partly Cloudy
5:00 AM 66.2 °F 64.4 °F 94% 29.98 in 6.2 mi NE 10.4 mph - N/A   Mostly Cloudy
6:00 AM 64.4 °F 62.6 °F 94% 30.01 in 6.2 mi ENE 10.4 mph - N/A   Mostly Cloudy
7:00 AM 66.2 °F 64.4 °F 94% 30.04 in 6.2 mi North 6.9 mph - N/A   Overcast
8:00 AM 66 °F 64 °F 90%  in 19 mi North 6.9 mph - -   Partly Cloudy
8:00 AM 66.2 °F 64.4 °F 94% 30.04 in 6.2 mi North 6.9 mph - N/A   Overcast
9:00 AM 69.8 °F 64.4 °F 83% 30.04 in 6.2 mi SW 6.9 mph - N/A   Overcast
10:00 AM 69.8 °F 64.4 °F 83% 0.00 in 6.2 mi SW 8.1 mph - N/A   Mostly Cloudy
11:00 AM 72 °F 66 °F 75%  in 19 mi SSW 5.8 mph - -   Partly Cloudy
11:00 AM 71.6 °F 66.2 °F 83% 30.04 in 6.2 mi SSW 5.8 mph - N/A   Mostly Cloudy
12:00 PM 77.0 °F 66.2 °F 69% 30.01 in 6.2 mi SSW 5.8 mph - N/A   Mostly Cloudy
1:00 PM 77.0 °F 64.4 °F 65% 29.98 in 6.2 mi Variable 3.5 mph - N/A   Mostly Cloudy
2:00 PM 75 °F 66 °F 67%  in 19 mi West 15.7 mph - -   Mostly Cloudy
2:00 PM 75.2 °F 66.2 °F 73% 29.98 in 6.2 mi West 8.1 mph - N/A   Mostly Cloudy
3:00 PM 71.6 °F 66.2 °F 83% 29.98 in 6.2 mi SW 5.8 mph - N/A Rain Light Rain
4:00 PM 66.2 °F 66.2 °F 100% 29.95 in 6.2 mi Variable 2.3 mph - N/A   Mostly Cloudy
5:00 PM 68 °F 67 °F 94%  in 19 mi NNW 1.2 mph - -   Scattered Clouds
5:00 PM 68.0 °F 66.2 °F 94% 29.95 in 6.2 mi Variable 1.2 mph - N/A   Mostly Cloudy
6:00 PM 68.0 °F 68.0 °F 100% 29.98 in 6.2 mi SE 3.5 mph - N/A   Mostly Cloudy
7:00 PM 68.0 °F 66.2 °F 94% 30.01 in 6.2 mi East 3.5 mph - N/A   Mostly Cloudy
8:00 PM 68 °F 66 °F 91%  in 19 mi Calm Calm - -   Scattered Clouds
8:00 PM 68.0 °F 66.2 °F 94% 30.01 in 6.2 mi Calm Calm - N/A   Mostly Cloudy
9:00 PM 66.2 °F 64.4 °F 94% 30.04 in 6.2 mi SSW 4.6 mph - N/A   Mostly Cloudy
10:00 PM 66.2 °F 64.4 °F 94% 30.04 in 6.2 mi Variable 2.3 mph - N/A   Mostly Cloudy
11:00 PM 64.4 °F 64.4 °F 100% 30.04 in 6.2 mi Calm Calm - N/A Rain Light Rain